When you browse on this site, cookies collect data to enhance your experience and personalize the content and advertising you see.
Visit our Privacy Policy to learn more. By continuing to use the site, you agree to this use of cookies and data.
  • In United Kingdom
  • List of Countries
  • For 7 days
  • Water Temperature
  • Satellite Maps
  • Weather Map
  • Weather Widgets
  • user-avatar
    Login

    Hourly Weather Pykiv

    Today, 21 June, Friday

    Time Temperature Precipitation Wind Pressure Humidity
    00:00 +20°C° 0 mm 2 mps 739 mmHg 91%
    01:00 +20°C° 0 mm 2 mps 739 mmHg 91%
    02:00 +20°C° 0 mm 2 mps 739 mmHg 91%
    03:00 +20°C° 0 mm 2 mps 739 mmHg 91%
    04:00 +20°C° 0 mm 2 mps 739 mmHg 91%
    05:00 +19°C° 0 mm 2 mps 740 mmHg 90%
    06:00 +21°C° 0 mm 2 mps 740 mmHg 87%
    07:00 +24°C° 0 mm 2 mps 740 mmHg 83%
    08:00 +25°C° 0 mm 2 mps 740 mmHg 80%
    09:00 +26°C° 0 mm 3 mps 740 mmHg 74%
    10:00 +28°C° 0 mm 3 mps 740 mmHg 69%
    11:00 +29°C° 0 mm 3 mps 740 mmHg 64%
    12:00 +29°C° 0.2 mm 3 mps 740 mmHg 64%
    13:00 +29°C° 0.2 mm 4 mps 740 mmHg 63%
    14:00 +29°C° 0.2 mm 4 mps 740 mmHg 63%
    15:00 +29°C° 0.2 mm 3 mps 740 mmHg 65%
    16:00 +29°C° 0.2 mm 3 mps 740 mmHg 67%
    17:00 +29°C° 0.2 mm 2 mps 739 mmHg 68%
    18:00 +27°C° 0.3 mm 2 mps 739 mmHg 72%
    19:00 +25°C° 0.3 mm 2 mps 739 mmHg 76%
    20:00 +24°C° 0.3 mm 2 mps 739 mmHg 80%
    21:00 +23°C° 0 mm 2 mps 740 mmHg 81%
    22:00 +21°C° 0 mm 2 mps 740 mmHg 83%
    23:00 +20°C° 0 mm 2 mps 740 mmHg 84%

    Tomorrow, 22 June, Saturday

    Time Temperature Precipitation Wind Pressure Humidity
    00:00 +20°C° 0 mm 2 mps 740 mmHg 84%
    01:00 +19°C° 0 mm 2 mps 740 mmHg 85%
    02:00 +19°C° 0 mm 2 mps 740 mmHg 85%
    03:00 +19°C° 0 mm 2 mps 740 mmHg 85%
    04:00 +19°C° 0 mm 2 mps 740 mmHg 85%
    05:00 +19°C° 0 mm 2 mps 740 mmHg 85%
    06:00 +20°C° 0 mm 2 mps 740 mmHg 81%
    07:00 +23°C° 0 mm 2 mps 741 mmHg 78%
    08:00 +25°C° 0 mm 2 mps 741 mmHg 74%
    09:00 +26°C° 0 mm 2 mps 741 mmHg 70%
    10:00 +28°C° 0 mm 3 mps 741 mmHg 66%
    11:00 +29°C° 0 mm 3 mps 741 mmHg 63%
    12:00 +29°C° 0.1 mm 3 mps 741 mmHg 61%
    13:00 +30°C° 0.1 mm 3 mps 741 mmHg 59%
    14:00 +30°C° 0.1 mm 3 mps 741 mmHg 57%
    15:00 +30°C° 0 mm 3 mps 741 mmHg 60%
    16:00 +30°C° 0 mm 2 mps 740 mmHg 62%
    17:00 +30°C° 0 mm 2 mps 740 mmHg 64%
    18:00 +28°C° 0.1 mm 2 mps 740 mmHg 69%
    19:00 +26°C° 0.1 mm 2 mps 741 mmHg 73%
    20:00 +24°C° 0.1 mm 2 mps 741 mmHg 77%
    21:00 +23°C° 0 mm 2 mps 741 mmHg 77%
    22:00 +21°C° 0 mm 2 mps 741 mmHg 77%
    23:00 +21°C° 0 mm 2 mps 741 mmHg 76%

    Day after tomorrow, 23 June, Sunday

    Time Temperature Precipitation Wind Pressure Humidity
    00:00 +20°C° 0 mm 2 mps 741 mmHg 79%
    01:00 +21°C° 0 mm 1 mps 741 mmHg 82%
    02:00 +21°C° 0 mm 1 mps 741 mmHg 84%
    03:00 +20°C° 0 mm 1 mps 741 mmHg 85%
    04:00 +19°C° 0 mm 2 mps 741 mmHg 86%
    05:00 +19°C° 0 mm 2 mps 741 mmHg 87%
    06:00 +21°C° 0 mm 2 mps 741 mmHg 84%
    07:00 +24°C° 0 mm 2 mps 741 mmHg 81%
    08:00 +25°C° 0 mm 2 mps 741 mmHg 78%
    09:00 +26°C° 0.8 mm 3 mps 741 mmHg 73%
    10:00 +28°C° 0.8 mm 3 mps 741 mmHg 68%
    11:00 +29°C° 0.8 mm 3 mps 741 mmHg 63%
    12:00 +29°C° 0.5 mm 3 mps 741 mmHg 62%
    13:00 +29°C° 0.5 mm 3 mps 741 mmHg 61%
    14:00 +29°C° 0.5 mm 3 mps 741 mmHg 60%
    15:00 +29°C° 0.8 mm 3 mps 741 mmHg 64%
    16:00 +29°C° 0.8 mm 2 mps 741 mmHg 68%
    17:00 +28°C° 0.8 mm 2 mps 741 mmHg 72%
    18:00 +27°C° 0.5 mm 2 mps 741 mmHg 75%
    19:00 +25°C° 0.5 mm 2 mps 741 mmHg 78%
    20:00 +24°C° 0.5 mm 2 mps 741 mmHg 81%
    21:00 +23°C° 0 mm 2 mps 741 mmHg 82%
    22:00 +23°C° 0 mm 2 mps 742 mmHg 83%
    23:00 +21°C° 0 mm 2 mps 742 mmHg 83%

    24 June, Monday

    Time Temperature Precipitation Wind Pressure Humidity
    00:00 +20°C° 0 mm 2 mps 742 mmHg 85%
    01:00 +20°C° 0 mm 2 mps 742 mmHg 86%
    02:00 +19°C° 0 mm 2 mps 743 mmHg 87%
    03:00 +19°C° 0 mm 2 mps 743 mmHg 87%
    04:00 +19°C° 0 mm 2 mps 743 mmHg 87%
    05:00 +18°C° 0 mm 2 mps 743 mmHg 88%
    06:00 +20°C° 0 mm 2 mps 743 mmHg 84%
    07:00 +23°C° 0 mm 2 mps 744 mmHg 81%
    08:00 +25°C° 0 mm 3 mps 744 mmHg 78%
    09:00 +26°C° 0 mm 3 mps 744 mmHg 72%
    10:00 +27°C° 0 mm 4 mps 744 mmHg 67%
    11:00 +28°C° 0 mm 4 mps 744 mmHg 61%
    12:00 +29°C° 0.1 mm 4 mps 744 mmHg 61%
    13:00 +29°C° 0.1 mm 4 mps 745 mmHg 61%
    14:00 +29°C° 0.1 mm 4 mps 745 mmHg 61%
    15:00 +29°C° 0.4 mm 4 mps 745 mmHg 66%
    16:00 +28°C° 0.4 mm 4 mps 745 mmHg 71%
    17:00 +27°C° 0.4 mm 4 mps 745 mmHg 76%
    18:00 +26°C° 0.2 mm 3 mps 745 mmHg 80%
    19:00 +25°C° 0.2 mm 3 mps 745 mmHg 85%
    20:00 +22°C° 0.2 mm 3 mps 745 mmHg 89%
    21:00 +22°C° 0 mm 3 mps 745 mmHg 91%
    22:00 +21°C° 0 mm 3 mps 745 mmHg 92%
    23:00 +20°C° 0 mm 3 mps 746 mmHg 94%

    25 June, Tuesday

    Time Temperature Precipitation Wind Pressure Humidity
    00:00 +20°C° 0 mm 3 mps 746 mmHg 95%
    01:00 +20°C° 0 mm 3 mps 746 mmHg 96%
    02:00 +20°C° 0 mm 3 mps 746 mmHg 97%
    03:00 +19°C° 0 mm 3 mps 746 mmHg 97%
    04:00 +19°C° 0 mm 3 mps 746 mmHg 97%
    05:00 +19°C° 0 mm 4 mps 746 mmHg 98%
    06:00 +20°C° 0 mm 4 mps 746 mmHg 95%
    07:00 +20°C° 0 mm 4 mps 747 mmHg 93%
    08:00 +21°C° 0 mm 4 mps 747 mmHg 91%
    09:00 +22°C° 0 mm 4 mps 747 mmHg 85%
    10:00 +25°C° 0 mm 5 mps 747 mmHg 80%
    11:00 +26°C° 0 mm 5 mps 748 mmHg 74%
    12:00 +26°C° 0 mm 5 mps 748 mmHg 73%
    13:00 +27°C° 0 mm 5 mps 747 mmHg 71%
    14:00 +27°C° 0 mm 5 mps 747 mmHg 69%
    15:00 +27°C° 0 mm 5 mps 747 mmHg 69%
    16:00 +26°C° 0 mm 4 mps 747 mmHg 69%
    17:00 +26°C° 0 mm 4 mps 747 mmHg 69%
    18:00 +23°C° 0 mm 4 mps 747 mmHg 72%
    19:00 +21°C° 0 mm 3 mps 747 mmHg 75%
    20:00 +20°C° 0 mm 2 mps 747 mmHg 78%
    21:00 +19°C° 0 mm 2 mps 747 mmHg 80%
    22:00 +18°C° 0 mm 2 mps 747 mmHg 83%
    23:00 +18°C° 0 mm 1 mps 747 mmHg 85%

    26 June, Wednesday

    Time Temperature Precipitation Wind Pressure Humidity
    00:00 +16°C° 0 mm 1 mps 747 mmHg 86%
    01:00 +16°C° 0 mm 1 mps 747 mmHg 87%
    02:00 +15°C° 0 mm 1 mps 747 mmHg 88%
    03:00 +16°C° 0 mm 1 mps 746 mmHg 88%
    04:00 +16°C° 0 mm 1 mps 746 mmHg 88%
    05:00 +16°C° 0 mm 1 mps 746 mmHg 88%
    06:00 +19°C° 0 mm 1 mps 746 mmHg 83%
    07:00 +20°C° 0 mm 1 mps 746 mmHg 78%
    08:00 +22°C° 0 mm 1 mps 746 mmHg 74%
    09:00 +23°C° 0 mm 2 mps 746 mmHg 69%
    10:00 +24°C° 0 mm 2 mps 746 mmHg 65%
    11:00 +25°C° 0 mm 3 mps 746 mmHg 61%
    12:00 +25°C° 0 mm 3 mps 745 mmHg 60%
    13:00 +26°C° 0 mm 3 mps 745 mmHg 59%
    14:00 +26°C° 0 mm 3 mps 744 mmHg 59%
    15:00 +26°C° 0 mm 3 mps 744 mmHg 60%
    16:00 +25°C° 0 mm 3 mps 744 mmHg 62%
    17:00 +25°C° 0 mm 3 mps 743 mmHg 64%
    18:00 +22°C° 0.1 mm 3 mps 743 mmHg 71%
    19:00 +21°C° 0.1 mm 3 mps 743 mmHg 79%
    20:00 +19°C° 0.1 mm 2 mps 743 mmHg 86%
    21:00 +18°C° 0 mm 2 mps 743 mmHg 87%
    22:00 +17°C° 0 mm 2 mps 743 mmHg 88%
    23:00 +16°C° 0 mm 2 mps 743 mmHg 89%
    Show more